China Lake, CA

3:12 PM PST on February 22, 2018 (GMT -0800)
China Lake NAWS

Weather History for KNID - July, 2013

Change the Weather History Date:

Wednesday, July 31, 2013

  Actual Average Record
Temperature  
Mean Temperature 90 °F -  
Max Temperature 106 °F 100 °F 111 °F (2017)
Min Temperature 73 °F 72 °F 63 °F (2001)
Cooling Degree Days 24    
Growing Degree Days 40 (Base 50)    
Moisture  
Dew Point 36 °F    
Average Humidity 18    
Maximum Humidity 35    
Minimum Humidity 4    
Precipitation  
Precipitation 0.00 in - - ()
Sea Level Pressure  
Sea Level Pressure 29.92 in    
Wind  
Wind Speed 6 mph (South)    
Max Wind Speed 16 mph    
Max Gust Speed 25 mph    
Visibility 10 miles    
Events      
Averages and records for this station are not official NWS values.
T = Trace of Precipitation, MM = Missing Value Source: NWS Daily Summary

Daily Weather History Graph

Daily Weather History Graph

Search for Another Location

Airport or City:

Trip Planner

Search our weather history database for the weather conditions in past years. The results will help you decide how hot, cold, wet, or windy it might be!

Date:

Astronomy

Jul. 31, 2013 Rise Set
Actual Time 5:58 AM PDT 7:55 PM PDT
Civil Twilight 5:30 AM PDT 8:23 PM PDT
Nautical Twilight 4:55 AM PDT 8:57 PM PDT
Astronomical Twilight 4:19 AM PDT 9:34 PM PDT
Moon 12:56 AM PDT (7/31) 3:15 PM PDT (7/31)
Length of Visible Light 14h 53m
Length of Day
13h 57m
Waning Crescent, 31% of the Moon is Illuminated
Jul 31
Waning Crescent
Aug 6
New
Aug 14
First Quarter
Aug 20
Full
Aug 28
Last Quarter

Hourly Weather History & Observations

Time (PDT) Temp. Dew Point Humidity Pressure Visibility Wind Dir Wind Speed Gust Speed Precip Events Conditions
12:56 AM 84.0 °F 44.1 °F 25% 29.96 in 10.0 mi SSE 5.8 mph - N/A   Clear
1:56 AM 82.0 °F 44.1 °F 26% 29.95 in 10.0 mi SSW 3.5 mph - N/A   Clear
2:56 AM 77.0 °F 43.0 °F 30% 29.95 in 10.0 mi South 5.8 mph - N/A   Clear
3:56 AM 77.0 °F 44.1 °F 31% 29.95 in 10.0 mi Calm Calm - N/A   Clear
4:56 AM 73.0 °F 44.1 °F 35% 29.96 in 10.0 mi South 5.8 mph - N/A   Clear
5:56 AM 73.9 °F 44.1 °F 34% 29.97 in 10.0 mi SW 6.9 mph - N/A   Clear
6:56 AM 73.9 °F 43.0 °F 33% 29.99 in 10.0 mi Calm Calm - N/A   Clear
7:56 AM 81.0 °F 43.0 °F 26% 29.99 in 10.0 mi Calm Calm - N/A   Clear
8:56 AM 87.1 °F 43.0 °F 21% 29.99 in 10.0 mi Calm Calm - N/A   Clear
9:56 AM 91.9 °F 43.0 °F 18% 29.99 in 10.0 mi NNE 3.5 mph - N/A   Clear
10:56 AM 95.0 °F 42.1 °F 16% 29.98 in 10.0 mi Calm Calm - N/A   Clear
11:56 AM 98.1 °F 43.0 °F 15% 29.96 in 10.0 mi Calm Calm - N/A   Clear
12:56 PM 102.0 °F 41.0 °F 12% 29.93 in 10.0 mi ESE 8.1 mph - N/A   Clear
1:56 PM 105.1 °F 36.0 °F 9% 29.91 in 10.0 mi South 16.1 mph 23.0 mph N/A   Clear
2:56 PM 105.1 °F 21.0 °F 5% 29.90 in 10.0 mi South 12.7 mph 19.6 mph N/A   Partly Cloudy
3:56 PM 106.0 °F 28.0 °F 7% 29.86 in 10.0 mi SSW 12.7 mph - N/A   Partly Cloudy
4:56 PM 105.1 °F 25.0 °F 6% 29.84 in 10.0 mi SSW 11.5 mph 19.6 mph N/A   Partly Cloudy
5:56 PM 104.0 °F 17.1 °F 4% 29.82 in 10.0 mi SSW 12.7 mph 25.3 mph N/A   Partly Cloudy
6:56 PM 102.0 °F 19.9 °F 5% 29.82 in 10.0 mi South 12.7 mph - N/A   Partly Cloudy
7:56 PM 96.1 °F 27.0 °F 9% 29.83 in 10.0 mi SSW 12.7 mph - N/A   Partly Cloudy
8:56 PM 91.9 °F 28.9 °F 11% 29.84 in 10.0 mi SSW 12.7 mph - N/A   Clear
9:56 PM 87.1 °F 33.1 °F 15% 29.87 in 10.0 mi South 8.1 mph - N/A   Clear
10:56 PM 84.0 °F 36.0 °F 18% 29.86 in 10.0 mi SSW 11.5 mph - N/A   Clear
11:56 PM 80.1 °F 37.9 °F 22% 29.86 in 10.0 mi South 6.9 mph - N/A   Clear